Location: Barcelona
(41.3830°N, 2.1830°E)
Time: 16:44:29
(UTC+02:00)

ISS - Pass Details

Date: 12 March 2021
Orbit: 418 x 422 km, 51.6° (Epoch: 16 April)

Event Time Altitude Azimuth Distance (km) Brightness Sun altitude
Exits shadow 05:48:39 37° 273° (W) 666 -3.3 -15.7°
Maximum altitude 05:49:36 52° 220° (SW) 524 -3.6 -15.5°
Drops below altitude 10° 05:52:52 10° 143° (SE) 1,489 -0.6 -14.9°
Sets 05:54:59 0° 138° (SE) 2,349 0.5 -14.5°
